date.,time(JST),lat.(N),long.(E),depht(m),deg.,knot.,depht(m),deg.,knot.,depht(m),deg.,knot.
20040625,1654,3715.3,13729.8,7,265.1,0.5,47,255.1,0.5,97,284.3,0.5
20040625,1659,3714.4,13729.9,7,19.9,0.3,47,92.4,0.2,97,46.5,0.3
20040625,1704,3713.5,13729.9,7,358.7,0.4,47,39.6,0.4,97,49,0.4
20040625,1709,3712.5,13730.0,7,350.4,0.3,47,51.8,0.5,97,59.6,0.4
20040625,1714,3711.6,13730.0,7,1,0.6,47,16.1,0.8,97,19.3,0.7
20040625,1719,3710.7,13730.0,7,308.9,0.8,47,304.1,0.6,97,324.6,0.6
20040625,1724,3709.7,13730.0,7,274.2,0.4,47,297,0.4,97,323,0.3
20040625,1729,3708.8,13730.0,7,199.8,0.2,47,115,0.3,97,85,0.2
20040625,1734,3707.8,13730.1,7,253.7,0.4,47,264.6,0.2,97,282.8,0.1
20040625,1739,3706.9,13730.1,7,175.9,0.1,47,194,0.1,97,121.1,0.2
20040625,1744,3706.0,13730.1,7,235.1,0.4,47,231.7,0.4,97,87.9,0.2
20040625,1749,3705.0,13730.1,7,242.3,0.5,47,228.2,0.6,97,92.9,0.2
20040625,1754,3704.1,13730.1,7,229.5,0.5,47,216.6,0.7,97,92.5,0.2
20040625,1759,3703.2,13730.1,7,239.6,0.4,47,249.7,0.5,97,92.2,0.2
20040625,1804,3702.3,13730.0,7,181.7,0.4,47,194.8,0.4,97,119.6,0.2
20040625,1809,3701.4,13730.0,7,82.1,0.5,47,87.8,0.3,97,72.9,0.8
20040625,1814,3700.5,13730.0,7,122.9,0.1,47,174.1,0.4,97,228.2,0.3
20040625,1824,3659.5,13728.3,7,78.5,1,47,85.6,0.9,97,106,0.5
20040625,1829,3659.1,13727.3,7,72.1,1.1,47,80.7,1,97,102.3,0.6
20040625,1834,3658.7,13726.3,7,64.2,1,47,65.4,0.8,97,83.1,0.4
20040625,1839,3658.3,13725.3,7,76.5,0.9,47,77,0.8,97,121,0.4
20040625,1844,3657.9,13724.4,7,35,0.9,47,70.6,0.9,97,93.9,0.2
20040625,1849,3657.4,13723.4,7,12.9,0.7,47,11.3,0.5,97,337.1,0.2
20040625,1854,3656.6,13723.0,7,75,0.2,47,16.4,0.3,97,354.2,0.1
20040625,1859,3655.7,13722.6,7,83.8,0.3,47,40.3,0,97,164.5,0.3
20040625,1904,3654.9,13722.2,7,135.5,0.3,47,175.7,0.1,97,167.9,0.6
20040625,1909,3654.0,13721.8,7,,,47,294.5,0.3,97,175.7,0.7
20040625,1914,3653.1,13721.4,7,220,0.1,47,261.7,0.4,97,183,0.8
20040625,1919,3652.2,13721.1,7,164.6,0.1,47,49.1,0.4,97,167.8,0.1
20040625,1924,3652.0,13720.1,7,174.7,0.1,47,88.1,0.3,97,139.3,0.2
20040625,1929,3652.0,13718.9,7,291.6,0.1,47,39.6,0.2,97,230.3,0.1
20040625,1934,3652.1,13717.7,7,288.6,0.1,47,46.7,0.2,97,219.4,0.1
20040625,1939,3652.1,13716.6,7,227.1,0.1,47,129.7,0.1,97,219.6,0.2
20040625,1944,3652.0,13715.4,7,148.1,0.1,47,143,0.2,97,249.8,0.2
20040625,1949,3652.0,13714.3,7,68.9,0.2,47,185.4,0.1,97,285.2,0.2
20040625,1954,3651.9,13713.2,7,,,47,,,97,313.9,0.5
20040625,2004,3652.9,13712.0,7,35.9,0,47,233.2,0.2,97,269.4,0.5
20040625,2009,3653.9,13712.0,7,290.1,0.1,47,242.6,0.2,97,269.3,0.5
20040625,2014,3654.8,13712.0,7,263.3,0.3,47,269.1,0.3,97,277.5,0.5
20040625,2019,3655.7,13712.0,7,260,0.4,47,265.5,0.5,97,261.6,0.5
20040625,2024,3656.7,13712.0,7,262.4,0.5,47,259.9,0.6,97,263.9,0.4
20040625,2029,3657.6,13711.9,7,261.5,0.5,47,251.6,0.8,97,286.8,0.4
20040625,2034,3658.5,13711.9,7,252.5,0.7,47,250.3,0.9,97,289.2,0.4
20040625,2039,3659.5,13711.9,7,247.6,0.8,47,247.9,0.7,97,287.3,0.4
20040625,2049,3659.9,13713.8,7,214,0.7,47,203.7,0.5,97,328.1,0.2
20040625,2054,3659.9,13715.0,7,204.4,0.6,47,202.1,0.5,97,323.8,0.2
20040625,2059,3659.9,13716.2,7,191.8,0.4,47,221.2,0.4,97,347.8,0.5
20040625,2104,3659.9,13717.5,7,192.4,0.6,47,240.6,0.3,97,359.9,0.3
20040625,2109,3659.9,13718.7,7,186.8,0.4,47,240.2,0.1,97,4.4,0.2
20040625,2114,3660.0,13719.9,7,182.6,0.2,47,232.3,0.1,97,34,0.2
20040625,2124,3701.1,13720.9,7,261,0.3,47,281.6,0.2,97,285.5,0.1
20040625,2129,3702.0,13720.9,7,256.3,0.3,47,224.2,0.2,97,165.4,0.1
20040625,2134,3702.9,13721.1,7,242.2,0.1,47,168.4,0.2,97,97.9,0.2
20040625,2139,3703.9,13721.1,7,208.3,0.1,47,158.5,0.2,97,133.7,0.3
20040625,2144,3704.8,13721.1,7,204.1,0.2,47,179.1,0.4,97,134.1,0.3
20040625,2149,3705.7,13721.0,7,194.8,0.2,47,178.1,0.4,97,156.8,0.5
20040625,2154,3706.6,13721.0,7,191.4,0.2,47,169.6,0.4,97,159.8,0.4
20040625,2159,3707.6,13721.0,7,216.7,0.2,47,184.1,0.4,97,187,0.4
20040625,2204,3707.9,13720.2,7,216.5,0.3,47,191.4,0.4,97,197.5,0.5
20040625,2209,3707.9,13719.0,7,190.5,0.7,47,176,0.5,97,160.9,0.5
20040625,2214,3707.8,13717.8,7,185.3,0.8,47,186.2,0.6,97,153.5,0.5
20040625,2219,3707.8,13716.6,7,184.6,1,47,188.3,0.5,97,159.7,0.3
20040625,2224,3707.8,13715.4,7,184.7,1,47,177.4,0.7,97,169.3,0.2
20040625,2229,3707.9,13714.2,7,196.2,0.9,47,182.4,0.8,97,147.8,0.1
20040625,2249,3710.1,13713.6,7,247.8,0.3,47,238.7,0.1,97,346.6,0.5
20040625,2254,3710.8,13714.3,7,210,0.3,47,169.2,0.3,97,315.8,0.4
20040625,2259,3711.6,13715.0,7,210.5,0.3,47,172.8,0.3,97,314.1,0.3
20040625,2304,3712.3,13715.8,7,206.3,0.4,47,172.2,0.4,97,341.3,0.1
20040625,2309,3713.0,13716.5,7,212.8,0.6,47,199.3,0.2,97,12.5,0.2
20040625,2314,3713.8,13717.2,7,215,0.7,47,240.3,0.2,97,347.2,0.1
20040625,2319,3714.5,13717.9,7,215.2,0.8,47,235.7,0.3,97,340.9,0.2
20040625,2324,3715.3,13718.6,7,217.2,0.8,47,245.1,0.4,97,354.8,0.2
20040625,2329,3716.0,13719.2,7,227.8,0.8,47,268.9,0.4,97,345.5,0.3
20040625,2334,3716.8,13719.9,7,225.7,0.8,47,263.1,0.5,97,306.5,0.2
20040625,2339,3717.6,13720.6,7,238.2,0.7,47,261.5,0.5,97,316.8,0.3
20040625,2344,3718.4,13721.1,7,252.6,0.5,47,261.2,0.5,97,328.6,0.3
20040625,2349,3719.4,13721.4,7,240.4,0.6,47,255.6,0.7,97,,
20040625,2354,3720.3,13721.7,7,233.8,0.8,47,254,0.6,97,,
20040625,2359,3721.2,13722.0,7,236.5,0.7,47,253.4,0.5,97,,
20040626,4,3722.0,13722.5,7,238.7,0.6,47,253.4,0.5,97
20040626,9,3722.8,13723.1,7,239.1,0.6,47,253.6,0.4,97
20040626,14,3723.7,13723.6,7,251.3,0.5,47,247.2,0.6,97
20040626,19,3724.5,13724.2,7,244,0.6,47,258.3,0.4,97
20040626,24,3725.3,13724.7,7,259.1,0.5,47,275.3,0.4,97
20040626,29,3726.2,13725.1,7,262,0.4,47,266,0.4,97
20040626,34,3727.1,13725.0,7,238,0.8,47,245.1,0.4,97
20040626,39,3728.1,13725.0,7,237.8,0.6,47,233.7,0.3,97
